Hourly Data Report for October 29, 2014

All times are specified in Local Standard Time (LST). Add 1 hour to adjust for Daylight Saving Time where and when it is observed.

QIKIQTARJUAQ A
NUNAVUT

67°32'48.000" N
64°01'54.000" W
5.50 m
2400577
YVM

Download Data

Hourly Data (October 2014)
Hourly Data Report for October 29, 2014
Temp Definition
°C
Dew Point Temp Definition
°C
Rel Hum Definition
%
Wind Dir Definition
10's deg

Wind Spd Definition
km/h
Visibility Definition
km
Stn Press Definition
kPa
Hmdx Definition


Wind Chill Definition


Weather Definition


TIME
00:00 Legend Double Dagger -4.0 -6.3 84 21 26 9.7 100.89   -11 Snow
01:00 Legend Double Dagger -4.0 -6.5 83 20 22 16.1 100.91   -11 LegendNANA
02:00 Legend Double Dagger -3.7 -5.9 85 23 15 16.1 100.90   -9 LegendNANA
03:00 Legend Double Dagger -3.5 -6.1 82 20 15 16.1 100.86   -9 LegendNANA
04:00 Legend Double Dagger -3.8 -6.6 81 20 11 16.1 100.84   -8 LegendNANA
05:00 Legend Double Dagger -4.1 -6.3 85 20 11 16.1 100.82   -9 LegendNANA
06:00 Legend Double Dagger -5.0 -7.5 83 20 11 16.1 100.79   -10 LegendNANA
07:00 Legend Double Dagger -4.1 -7.1 80 LegendMM 4 16.1 100.77   -6 LegendNANA
08:00 Legend Double Dagger -3.6 -6.3 82 21 9 16.1 100.73   -7 LegendNANA
09:00 Legend Double Dagger -3.3 -5.6 84 22 11 16.1 100.70   -8 LegendNANA
10:00 Legend Double Dagger -3.1 -5.4 84 19 9 16.1 100.68   -7 LegendNANA
11:00 Legend Double Dagger -3.1 -5.4 84 19 9 16.1 100.64   -7 LegendNANA
12:00 Legend Double Dagger -3.0 -5.7 82   0 16.1 100.64     LegendNANA
13:00 Legend Double Dagger -3.6 -6.0 83 LegendMM 4 16.1 100.64   -5 LegendNANA
14:00 Legend Double Dagger -3.4 -6.0 82 14 5 16.1 100.67   -5 LegendNANA
15:00 Legend Double Dagger -3.6 -6.1 83 13 4 16.1 100.69   -5 LegendNANA
16:00 Legend Double Dagger -2.6 -5.4 81   0 16.1 100.67     LegendNANA
17:00 Legend Double Dagger -3.1 -5.4 84 18 8 16.1 100.66   -6 LegendNANA
18:00 Legend Double Dagger -3.0 -5.5 83 19 5 16.1 100.66   -5 LegendNANA
19:00 Legend Double Dagger -3.1 -5.8 82 15 5 16.1 100.65   -5 LegendNANA
20:00 Legend Double Dagger -2.2 -5.6 78 17 5 16.1 100.65   -4 LegendNANA
21:00 Legend Double Dagger -2.9 -5.7 81   0 16.1 100.68     LegendNANA
22:00 Legend Double Dagger -4.3 -6.4 85 7 8 16.1 100.67   -8 LegendNANA
23:00 Legend Double Dagger -2.5 -4.5 87 5 8 16.1 100.68   -6 LegendNANA

Notes on Data Quality.

Legend

  • E = Estimated
  • M = Missing
  • NA = Not Available
  • ‡ = Partner data that is not subject to review by the National Climate Archives
Date modified: